Powrót do katalogu

STARLINK-31570

AktywnyŁącznośćVLEO
NORAD 59324·PAYLOAD·🇺🇸 United States

Wystrzelony Mar 25, 2024 z Cape Canaveral Space Force Station

Loading…

Następne Przeloty (najbliższe 24 godziny)

TLE

ŚwieżeSource: CelesTrak SupGP

Epoka: Sep 15, 2026, 03:32 UTC

1 59324C 24057E   26258.14770833  .00024199  00000+0  87664-3 0  2583
2 59324  43.0004 197.5101 0001241 273.6485 303.3952 15.27561027    15

Śledź STARLINK-31570 w czasie rzeczywistym z AllMySat

Download on the App Store